Location: Columbia
(38.9520°N, 92.3340°W)
Time: 06:34:15
(UTC-06:00)

Tiangong 1 - Visible Passes

Search period start: 05 December 2016 00:00
Search period end: 15 December 2016 00:00
Orbit: 349 x 370 km, 42.8° (Epoch: 05 December)

Date Brightness Start Highest point End Pass type
(mag) Time Alt. Az. Time Alt. Az. Time Alt. Az.
05 Dec 1.9 17:53:08 10° SW 17:55:56 35° SSE 17:57:11 23° ESE visible
06 Dec 0.8 18:21:19 10° WSW 18:24:20 86° NNW 18:24:25 83° NE visible
07 Dec 1.6 17:13:43 10° SW 17:16:40 47° SSE 17:19:35 10° ENE visible
07 Dec 3.0 18:49:57 10° W 18:51:35 26° WNW 18:51:35 26° WNW visible
08 Dec 1.0 17:42:01 10° WSW 17:45:03 69° NNW 17:46:59 20° ENE visible
08 Dec 4.5 19:18:37 10° WNW 19:18:40 10° WNW 19:18:40 10° WNW visible
09 Dec 1.6 18:10:38 10° W 18:13:32 41° N 18:14:01 37° NNE visible
10 Dec 2.7 18:39:11 10° WNW 18:41:02 28° NW 18:41:02 28° NW visible
11 Dec 1.8 17:31:09 10° WNW 17:34:02 38° N 17:36:20 14° ENE visible
11 Dec 4.1 19:07:32 10° WNW 19:08:01 14° WNW 19:08:01 14° WNW visible
12 Dec 1.6 17:59:35 10° WNW 18:02:28 39° N 18:03:20 31° NE visible
13 Dec 1.4 18:27:48 10° WNW 18:30:23 52° NNW 18:30:23 52° NNW visible
14 Dec 1.5 17:19:48 10° WNW 17:22:44 42° N 17:25:38 10° E visible
14 Dec 3.2 18:55:59 10° WNW 18:57:30 26° W 18:57:30 26° W visible
